Location: Bats
(43.6587°N, 0.4584°W)
Time: 07:05:36
(UTC+00:00)

Cosmos 1953 - Pass Details

Date: 12 January 2026
Orbit: 474 x 489 km, 82.5° (Epoch: 10 February)

Event Time Altitude Azimuth Distance (km) Brightness Sun altitude
Rises 17:14:38 0° 8° (N) 2,583 5.4 -5.3°
Reaches altitude 10° 17:17:25 10° 31° (NNE) 1,696 4.3 -5.7°
Maximum altitude 17:19:48 16° 71° (ENE) 1,351 3.7 -6.1°
Drops below altitude 10° 17:22:10 10° 111° (ESE) 1,687 4.4 -6.5°
Sets 17:24:54 0° 133° (SE) 2,563 5.5 -7.0°
